Houston Hull, TX

4:50 AM CST on December 14, 2019 (GMT -0600)
Sugar Land Municipal-Hull

Weather History for KSGR - November, 2019

Change the Weather History Date:

Thursday, November 14, 2019

  Actual Average Record
Temperature  
Mean Temperature 46 °F -  
Max Temperature 48 °F 72 °F 88 °F (1978)
Min Temperature 44 °F 51 °F 30 °F (2018)
Degree Days  
Heating Degree Days 19    
Moisture  
Dew Point 43 °F    
Average Humidity 89    
Maximum Humidity 97    
Minimum Humidity 68    
Precipitation  
Precipitation 0.14 in - - ()
Sea Level Pressure  
Sea Level Pressure 30.26 in    
Wind  
Wind Speed 10 mph (NNE)    
Max Wind Speed 16 mph    
Max Gust Speed -    
Visibility 7 miles    
Events Rain    
Averages and records for this station are not official NWS values.
T = Trace of Precipitation, MM = Missing Value Source: NWS Daily Summary

Daily Weather History Graph

Daily Weather History Graph

Search for Another Location

Airport or City:

Astronomy

Nov. 14, 2019 Rise Set
Actual Time 6:46 AM CST 5:27 PM CST
Civil Twilight 6:20 AM CST 5:52 PM CST
Nautical Twilight 5:52 AM CST 6:21 PM CST
Astronomical Twilight 5:23 AM CST 6:49 PM CST
Moon 7:20 PM CST 8:37 AM CST
Length of Visible Light 11h 32m
Length of Day
10h 41m
Waning Gibbous, 95% of the Moon is Illuminated
Nov 14
Waning Gibbous
Nov 19
Last Quarter
Nov 26
New
Dec 4
First Quarter
Dec 11
Full

Hourly Weather History & Observations

Time (CST) Temp. Windchill Dew Point Humidity Pressure Visibility Wind Dir Wind Speed Gust Speed Precip Events Conditions
12:53 AM 48.0 °F - 37.9 °F 68% 30.18 in 10.0 mi NE 6.9 mph - N/A   Overcast
1:53 AM 48.0 °F - 39.0 °F 71% 30.17 in 10.0 mi ENE 6.9 mph - N/A   Overcast
2:53 AM 48.0 °F - 37.9 °F 68% 30.16 in 10.0 mi ENE 6.9 mph - N/A   Overcast
3:53 AM 48.0 °F - 37.9 °F 68% 30.17 in 10.0 mi ENE 5.8 mph - N/A   Overcast
4:53 AM 46.9 °F - 39.9 °F 77% 30.17 in 8.0 mi NE 10.4 mph - 0.00 in Rain Light Rain
5:53 AM 45.0 °F 41.8 °F 41.0 °F 86% 30.19 in 10.0 mi NE 5.8 mph - 0.01 in Rain Light Rain
6:53 AM 45.0 °F 40.6 °F 41.0 °F 86% 30.20 in 8.0 mi NNE 8.1 mph - 0.02 in Rain Light Rain
7:53 AM 44.1 °F 38.1 °F 42.1 °F 93% 30.22 in 7.0 mi NNE 11.5 mph - 0.04 in Rain Light Rain
8:03 AM 44.1 °F 37.7 °F 42.1 °F 93% 30.21 in 6.0 mi NNE 12.7 mph - 0.01 in Rain Rain
8:14 AM 44.1 °F 38.1 °F 42.1 °F 93% 30.22 in 7.0 mi NNE 11.5 mph - 0.01 in Rain Light Rain
8:53 AM 45.0 °F 39.3 °F 42.1 °F 90% 30.24 in 10.0 mi NE 11.5 mph - 0.02 in Rain Light Rain
9:53 AM 45.0 °F 38.9 °F 43.0 °F 93% 30.27 in 3.0 mi NNE 12.7 mph - 0.01 in Rain Rain
10:17 AM 45.0 °F 38.9 °F 43.0 °F 93% 30.26 in 3.0 mi NNE 12.7 mph - 0.01 in Rain Light Rain
10:24 AM 45.0 °F 38.5 °F 43.0 °F 93% 30.26 in 2.5 mi NNE 13.8 mph - 0.01 in Rain Light Rain
10:53 AM 45.0 °F 37.9 °F 42.1 °F 90% 30.27 in 2.5 mi NE 16.1 mph - 0.02 in Rain Light Rain
11:00 AM 44.1 °F 37.1 °F 42.1 °F 93% 30.26 in 4.0 mi NE 15.0 mph - 0.00 in Rain Light Rain
11:53 AM 45.0 °F 39.7 °F 42.1 °F 90% 30.27 in 4.0 mi NE 10.4 mph - 0.00 in   Overcast
12:32 PM 45.0 °F 40.1 °F 43.0 °F 93% 30.26 in 2.5 mi NNE 9.2 mph - 0.00 in Rain Light Rain
12:53 PM 45.0 °F 39.3 °F 43.0 °F 93% 30.25 in 1.8 mi NNE 11.5 mph - 0.00 in Rain Light Rain
1:53 PM 46.0 °F 41.4 °F 44.1 °F 93% 30.24 in 4.0 mi NNE 9.2 mph - 0.01 in Rain Light Rain
2:53 PM 46.9 °F - 46.0 °F 97% 30.25 in 3.0 mi North 10.4 mph - 0.00 in Rain Light Rain
2:55 PM 46.9 °F - 46.0 °F 97% 30.24 in 3.0 mi North 10.4 mph - 0.00 in Rain Light Rain
3:02 PM 48.0 °F - 46.0 °F 93% 30.24 in 2.0 mi North 11.5 mph - 0.00 in Rain Light Rain
3:37 PM 48.0 °F - 46.0 °F 93% 30.25 in 3.0 mi NNE 13.8 mph - 0.01 in Rain Light Rain
3:53 PM 48.0 °F - 46.0 °F 93% 30.26 in 5.0 mi North 12.7 mph - 0.01 in   Overcast
4:53 PM 48.0 °F - 46.0 °F 93% 30.27 in 10.0 mi North 12.7 mph - N/A   Overcast
5:53 PM 48.0 °F - 46.0 °F 93% 30.28 in 10.0 mi North 9.2 mph - N/A   Overcast
6:53 PM 46.9 °F - 45.0 °F 93% 30.31 in 10.0 mi NNE 9.2 mph - N/A   Overcast
7:53 PM 46.9 °F - 44.1 °F 90% 30.34 in 10.0 mi NNE 11.5 mph - N/A   Overcast
8:53 PM 46.0 °F 40.2 °F 44.1 °F 93% 30.35 in 10.0 mi North 12.7 mph - N/A   Overcast
9:23 PM 46.0 °F 40.6 °F 43.0 °F 89% 30.35 in 10.0 mi North 11.5 mph - N/A   Overcast
9:53 PM 46.0 °F 39.9 °F 43.0 °F 89% 30.36 in 10.0 mi North 13.8 mph - N/A   Overcast
10:53 PM 46.0 °F 41.0 °F 43.0 °F 89% 30.36 in 10.0 mi NNE 10.4 mph - N/A   Overcast
11:53 PM 46.0 °F 41.9 °F 43.0 °F 89% 30.35 in 10.0 mi NNE 8.1 mph - N/A   Overcast